Location: Dehesa de la Cepeda
(40.6574°N, 4.3013°W)
Time: 01:54:57
(UTC+00:00)

Courier 1B - Pass Details

Date: 09 August 2021
Orbit: 963 x 1209 km, 28.3° (Epoch: 17 September)

Event Time Altitude Azimuth Distance (km) Brightness Sun altitude
Rises 17:07:17 0° 243° (WSW) 3,984 11.7 24.3°
Reaches altitude 10° 17:10:22 10° 234° (SW) 3,057 11.1 23.7°
Maximum altitude 17:16:54 32° 175° (S) 1,921 9.2 22.5°
Drops below altitude 10° 17:23:38 10° 116° (ESE) 3,140 9.7 21.2°
Sets 17:26:50 0° 107° (ESE) 4,107 10.2 20.6°
